{"data":{"norad_id":49019,"intl_designator":"2021-064B","name":"NINGXIA-1 7","alt_names":[],"object_type":"PAYLOAD","status":"ACTIVE","operator":null,"country":"PRC","launch_date":"2021-07-09","launch_site_code":"TAISC","launch_vehicle":null,"mission":null,"orbit_class":"UNKNOWN","rcs_meters":null,"size_class":null,"mass_kg":null,"dimensions":null,"purposes":[],"wikipedia_slug":null,"has_3d_model":false,"image_url":null,"decayed_at":null,"tle_current":{"epoch":"2026-05-25T05:00:31.891680Z","epoch_age_seconds":53493,"freshness":"FRESH","line1":"1 49019U 21064B   26145.20870245  .00000052  00000+0  10649-3 0  9991","line2":"2 49019  45.0041 331.1426 0006470 131.0749 229.0648 14.08547451251009","mean_motion":14.08547451,"eccentricity":0.000647,"inclination_deg":45.0041,"raan_deg":331.1426,"arg_perigee_deg":131.0749,"mean_anomaly_deg":229.0648,"bstar":0.00010649,"rev_number":25100,"period_min":102.2329775953,"perigee_km":859.66070498803,"apogee_km":869.03247875591,"semimajor_km":7242.483591872,"source":"CELESTRAK","updated_at":"2026-05-25T13:37:57.013374Z"}}}